�������l�o���
Date,Time,MP-1(��Sv/h),MP-2(��Sv/h),MP-3(��Sv/h),MP-4(��Sv/h),MP-5(��Sv/h),MP-6(��Sv/h),MP-7(��Sv/h),MP-8(��Sv/h),����,����(m/s),���J
2024/01/25,00:00,0.504,0.757,0.480,0.955,0.670,0.310,0.556,0.520,�k��,9.3,��
2024/01/25,00:10,0.505,0.757,0.479,0.953,0.670,0.310,0.555,0.521,�k��,6.1,��
2024/01/25,00:20,0.503,0.757,0.478,0.953,0.669,0.311,0.554,0.521,�k��,5.9,��
2024/01/25,00:30,0.504,0.756,0.479,0.953,0.670,0.311,0.554,0.520,���k��,4.0,��
2024/01/25,00:40,0.502,0.757,0.480,0.956,0.669,0.311,0.556,0.520,���k��,6.5,��
2024/01/25,00:50,0.504,0.755,0.480,0.956,0.672,0.311,0.555,0.521,���k��,5.6,��
2024/01/25,01:00,0.505,0.757,0.478,0.953,0.671,0.311,0.554,0.521,��,2.6,��
2024/01/25,01:10,0.504,0.758,0.479,0.953,0.671,0.311,0.554,0.521,�쐼,0.9,��
2024/01/25,01:20,0.505,0.758,0.479,0.954,0.672,0.310,0.554,0.520,��,0.6,��
2024/01/25,01:30,0.503,0.757,0.479,0.953,0.671,0.311,0.555,0.522,�k�k��,2.2,��
2024/01/25,01:40,0.503,0.757,0.477,0.955,0.671,0.310,0.555,0.522,�k��,2.5,��
2024/01/25,01:50,0.503,0.758,0.479,0.954,0.670,0.311,0.555,0.520,�k�k��,3.3,��
2024/01/25,02:00,0.505,0.757,0.481,0.953,0.670,0.311,0.555,0.520,�k��,0.8,��
2024/01/25,02:10,0.504,0.757,0.480,0.954,0.670,0.311,0.556,0.521,���k��,3.2,��
2024/01/25,02:20,0.503,0.757,0.479,0.954,0.671,0.310,0.555,0.521,���k��,8.9,��
2024/01/25,02:30,0.504,0.757,0.480,0.952,0.670,0.310,0.555,0.519,���k��,16.6,��
2024/01/25,02:40,0.504,0.755,0.480,0.956,0.666,0.310,0.555,0.521,���k��,14.9,��
2024/01/25,02:50,0.505,0.756,0.480,0.955,0.668,0.311,0.556,0.520,��,12.7,��
2024/01/25,03:00,0.504,0.756,0.477,0.955,0.667,0.309,0.554,0.521,��,11.4,��
2024/01/25,03:10,0.505,0.755,0.476,0.953,0.667,0.310,0.553,0.521,��,13.1,��
2024/01/25,03:20,0.501,0.755,0.478,0.952,0.668,0.309,0.554,0.520,��,10.2,��
2024/01/25,03:30,0.502,0.755,0.478,0.951,0.667,0.308,0.554,0.519,��,8.8,��
2024/01/25,03:40,0.501,0.754,0.478,0.951,0.668,0.308,0.553,0.522,��,8.7,��
2024/01/25,03:50,0.502,0.754,0.477,0.955,0.668,0.309,0.554,0.521,��,9.9,��
2024/01/25,04:00,0.503,0.755,0.477,0.954,0.667,0.310,0.555,0.520,��,9.8,��
2024/01/25,04:10,0.503,0.756,0.477,0.955,0.666,0.311,0.553,0.520,��,8.1,��
2024/01/25,04:20,0.501,0.757,0.478,0.956,0.665,0.312,0.554,0.520,���쐼,7.4,��
2024/01/25,04:30,0.502,0.758,0.478,0.955,0.668,0.310,0.553,0.521,��,7.3,��
2024/01/25,04:40,0.504,0.757,0.478,0.956,0.667,0.310,0.554,0.522,���쐼,7.6,��
2024/01/25,04:50,0.504,0.759,0.479,0.955,0.669,0.310,0.554,0.520,���쐼,7.5,��
2024/01/25,05:00,0.504,0.757,0.479,0.954,0.669,0.312,0.554,0.521,��,7.3,��
2024/01/25,05:10,0.503,0.757,0.480,0.954,0.668,0.310,0.554,0.521,��,7.1,��
2024/01/25,05:20,0.503,0.756,0.481,0.952,0.670,0.310,0.555,0.520,��,6.9,��
2024/01/25,05:30,0.503,0.755,0.479,0.956,0.668,0.311,0.553,0.521,��,7.0,��
2024/01/25,05:40,0.504,0.755,0.480,0.956,0.668,0.310,0.554,0.521,��,5.5,��
2024/01/25,05:50,0.504,0.756,0.478,0.955,0.668,0.309,0.554,0.520,���쐼,4.6,��
2024/01/25,06:00,0.503,0.757,0.478,0.957,0.668,0.311,0.554,0.522,���쐼,4.0,��
2024/01/25,06:10,0.504,0.756,0.477,0.955,0.669,0.311,0.554,0.520,���쐼,4.5,��
2024/01/25,06:20,0.502,0.756,0.478,0.957,0.668,0.311,0.555,0.520,���쐼,4.0,��
2024/01/25,06:30,0.503,0.757,0.479,0.955,0.668,0.310,0.554,0.521,���쐼,1.9,��
2024/01/25,06:40,0.504,0.756,0.477,0.955,0.669,0.309,0.554,0.521,���쐼,1.2,��
2024/01/25,06:50,0.502,0.756,0.478,0.954,0.667,0.309,0.554,0.520,���k��,1.5,��
2024/01/25,07:00,0.502,0.756,0.477,0.956,0.668,0.309,0.555,0.520,���k��,1.4,��
2024/01/25,07:10,0.502,0.756,0.478,0.955,0.667,0.309,0.556,0.521,���k��,2.9,��
2024/01/25,07:20,0.504,0.756,0.478,0.954,0.669,0.309,0.555,0.521,���k��,5.1,��
2024/01/25,07:30,0.505,0.756,0.478,0.954,0.669,0.311,0.554,0.520,���k��,4.9,��
2024/01/25,07:40,0.504,0.755,0.478,0.953,0.667,0.309,0.554,0.520,���k��,5.4,��
2024/01/25,07:50,0.503,0.756,0.479,0.955,0.668,0.310,0.554,0.520,���k��,4.5,��
2024/01/25,08:00,0.503,0.756,0.478,0.955,0.668,0.310,0.555,0.520,���k��,4.0,��
2024/01/25,08:10,0.505,0.756,0.478,0.955,0.668,0.309,0.556,0.521,���k��,3.3,��
2024/01/25,08:20,0.505,0.756,0.479,0.955,0.669,0.310,0.554,0.521,��,3.8,��
2024/01/25,08:30,0.504,0.756,0.478,0.954,0.668,0.310,0.554,0.520,���k��,6.6,��
2024/01/25,08:40,0.504,0.756,0.479,0.956,0.668,0.309,0.554,0.520,���k��,5.4,��
2024/01/25,08:50,0.502,0.757,0.479,0.955,0.668,0.309,0.555,0.520,���k��,9.1,��
2024/01/25,09:00,0.506,0.757,0.480,0.955,0.668,0.309,0.555,0.520,���k��,7.3,��
2024/01/25,09:10,0.504,0.758,0.478,0.957,0.669,0.310,0.554,0.523,���k��,10.2,��
2024/01/25,09:20,0.505,0.757,0.478,0.956,0.669,0.308,0.554,0.520,���k��,8.1,��
2024/01/25,09:30,0.505,0.758,0.477,0.954,0.671,0.309,0.556,0.520,���k��,10.7,��
2024/01/25,09:40,0.506,0.758,0.479,0.955,0.670,0.311,0.555,0.521,���k��,12.7,��
2024/01/25,09:50,0.502,0.758,0.478,0.959,0.670,0.309,0.554,0.522,���k��,12.4,��
2024/01/25,10:00,0.505,0.757,0.480,0.956,0.670,0.310,0.555,0.523,���k��,13.3,��
2024/01/25,10:10,0.505,0.755,0.480,0.956,0.669,0.310,0.555,0.521,���k��,8.0,��
2024/01/25,10:20,0.506,0.758,0.479,0.956,0.671,0.309,0.554,0.521,-,-,��
2024/01/25,10:30,0.507,0.758,0.481,0.955,0.672,0.311,0.554,0.522,-,-,��
2024/01/25,10:40,0.505,0.761,0.480,0.955,0.669,0.310,0.556,0.522,-,-,��
2024/01/25,10:50,0.505,0.759,0.480,0.956,0.674,0.310,0.555,0.521,-,-,��
2024/01/25,11:00,0.505,0.758,0.479,0.958,0.672,0.310,0.554,0.523,-,-,��
2024/01/25,11:10,0.505,0.761,0.480,0.957,0.674,0.310,0.553,0.523,-,-,��
2024/01/25,11:20,0.505,0.758,0.479,0.957,0.674,0.310,0.555,0.520,-,-,��
2024/01/25,11:30,0.504,0.758,0.480,0.958,0.674,0.311,0.552,0.522,-,-,��
2024/01/25,11:40,0.504,0.759,0.480,0.958,0.674,0.311,0.555,0.523,-,-,��
2024/01/25,11:50,0.505,0.761,0.481,0.957,0.673,0.311,0.555,0.523,-,-,��
2024/01/25,12:00,0.505,0.759,0.479,0.957,0.676,0.311,0.554,0.522,-,-,��
2024/01/25,12:10,0.506,0.761,0.478,0.956,0.672,0.311,0.556,0.523,-,-,��
2024/01/25,12:20,0.506,0.761,0.481,0.959,0.675,0.311,0.555,0.524,-,-,��
2024/01/25,12:30,0.506,0.760,0.481,0.958,0.674,0.310,0.554,0.524,-,-,��
2024/01/25,12:40,0.507,0.760,0.481,0.957,0.674,0.312,0.554,0.523,-,-,��
2024/01/25,12:50,0.507,0.759,0.481,0.957,0.674,0.309,0.555,0.522,-,-,��
2024/01/25,13:00,0.504,0.760,0.481,0.958,0.674,0.312,0.554,0.523,-,-,��
2024/01/25,13:10,0.507,0.763,0.479,0.958,0.674,0.310,0.556,0.523,-,-,��
2024/01/25,13:20,0.507,0.761,0.480,0.959,0.675,0.310,0.555,0.522,-,-,��
2024/01/25,13:30,0.507,0.760,0.479,0.958,0.674,0.311,0.556,0.523,-,-,��
2024/01/25,13:40,0.507,0.762,0.481,0.958,0.672,0.312,0.554,0.521,���k��,8.9,��
2024/01/25,13:50,0.508,0.759,0.479,0.957,0.673,0.312,0.557,0.521,���k��,10.3,��
2024/01/25,14:00,0.507,0.760,0.481,0.959,0.673,0.313,0.556,0.521,���k��,10.5,��
2024/01/25,14:10,0.506,0.760,0.480,0.959,0.674,0.310,0.557,0.519,���k��,9.4,��
2024/01/25,14:20,0.507,0.761,0.480,0.958,0.676,0.312,0.556,0.522,���k��,16.0,��
2024/01/25,14:30,0.506,0.760,0.479,0.960,0.677,0.313,0.555,0.521,���k��,11.1,��
2024/01/25,14:40,0.508,0.763,0.480,0.957,0.677,0.312,0.555,0.521,�k��,11.1,��
2024/01/25,14:50,0.507,0.761,0.480,0.959,0.678,0.311,0.555,0.523,���k��,10.2,��
2024/01/25,15:00,0.506,0.763,0.480,0.960,0.677,0.310,0.557,0.522,���k��,10.7,��
2024/01/25,15:10,0.508,0.762,0.481,0.961,0.678,0.313,0.556,0.523,���k��,10.6,��
2024/01/25,15:20,0.508,0.763,0.481,0.960,0.678,0.312,0.556,0.522,���k��,9.3,��
2024/01/25,15:30,0.507,0.764,0.479,0.960,0.678,0.312,0.557,0.523,���k��,8.1,��
2024/01/25,15:40,0.507,0.765,0.480,0.961,0.676,0.310,0.556,0.523,��,8.9,��
2024/01/25,15:50,0.506,0.762,0.481,0.961,0.676,0.310,0.555,0.521,��,9.2,��
2024/01/25,16:00,0.505,0.763,0.480,0.962,0.675,0.311,0.556,0.521,��,6.9,��
2024/01/25,16:10,0.507,0.764,0.480,0.962,0.678,0.311,0.556,0.521,���k��,5.6,��
2024/01/25,16:20,0.506,0.763,0.482,0.961,0.676,0.313,0.556,0.521,��,9.0,��
2024/01/25,16:30,0.506,0.762,0.480,0.961,0.677,0.313,0.557,0.522,��,6.8,��
2024/01/25,16:40,0.506,0.764,0.481,0.961,0.677,0.311,0.555,0.523,���k��,6.8,��
2024/01/25,16:50,0.505,0.761,0.481,0.962,0.676,0.311,0.554,0.522,���k��,7.0,��
2024/01/25,17:00,0.507,0.763,0.479,0.958,0.677,0.311,0.556,0.522,�k�k��,3.0,��
2024/01/25,17:10,0.506,0.763,0.479,0.960,0.676,0.312,0.556,0.523,�k��,3.0,��
2024/01/25,17:20,0.505,0.764,0.481,0.959,0.677,0.310,0.555,0.522,���k��,3.9,��
2024/01/25,17:30,0.504,0.764,0.480,0.962,0.677,0.311,0.555,0.521,�k��,2.8,��
2024/01/25,17:40,0.508,0.762,0.480,0.960,0.678,0.310,0.556,0.522,�k,4.4,��
2024/01/25,17:50,0.505,0.763,0.481,0.959,0.679,0.311,0.555,0.520,�k,4.9,��
2024/01/25,18:00,0.506,0.762,0.480,0.960,0.676,0.311,0.554,0.520,�k,4.5,��
2024/01/25,18:10,0.506,0.763,0.480,0.959,0.677,0.310,0.554,0.521,�k�k��,5.5,��
2024/01/25,18:20,0.506,0.763,0.480,0.961,0.677,0.310,0.555,0.522,�k�k��,6.8,��
2024/01/25,18:30,0.506,0.762,0.480,0.960,0.678,0.311,0.556,0.520,�k��,7.6,��
2024/01/25,18:40,0.507,0.762,0.480,0.961,0.677,0.311,0.556,0.521,���k��,8.1,��
2024/01/25,18:50,0.507,0.763,0.480,0.958,0.677,0.310,0.555,0.521,���k��,8.6,��
2024/01/25,19:00,0.507,0.763,0.480,0.961,0.678,0.310,0.557,0.521,���k��,9.4,��
2024/01/25,19:10,0.507,0.763,0.480,0.960,0.678,0.312,0.556,0.521,�k��,10.2,��
2024/01/25,19:20,0.505,0.763,0.477,0.960,0.677,0.312,0.555,0.520,�k�k��,5.1,��
2024/01/25,19:30,0.506,0.762,0.479,0.961,0.676,0.310,0.556,0.521,�k�k��,5.7,��
2024/01/25,19:40,0.506,0.763,0.479,0.960,0.677,0.309,0.554,0.521,�k�k��,5.7,��
2024/01/25,19:50,0.506,0.761,0.478,0.961,0.676,0.309,0.555,0.520,�k��,5.2,��
2024/01/25,20:00,0.507,0.762,0.480,0.960,0.678,0.310,0.555,0.522,�k��,4.8,��
2024/01/25,20:10,0.507,0.763,0.480,0.960,0.677,0.311,0.554,0.521,�k��,4.0,��
2024/01/25,20:20,0.505,0.763,0.479,0.961,0.678,0.311,0.556,0.522,�k��,6.9,��
2024/01/25,20:30,0.507,0.762,0.481,0.960,0.677,0.312,0.556,0.521,�k��,5.7,��
2024/01/25,20:40,0.506,0.764,0.481,0.960,0.676,0.310,0.556,0.520,�k�k��,2.8,��
2024/01/25,20:50,0.506,0.763,0.480,0.961,0.677,0.311,0.555,0.520,�k�k��,4.0,��
2024/01/25,21:00,0.506,0.762,0.479,0.960,0.676,0.312,0.556,0.521,�k��,3.8,��
2024/01/25,21:10,0.506,0.763,0.480,0.961,0.676,0.312,0.555,0.520,�k�k��,3.9,��
2024/01/25,21:20,0.506,0.763,0.480,0.960,0.677,0.312,0.555,0.521,�k��,3.3,��
2024/01/25,21:30,0.506,0.763,0.479,0.958,0.676,0.312,0.556,0.520,�k��,2.2,��
2024/01/25,21:40,0.505,0.761,0.479,0.959,0.676,0.311,0.553,0.521,�k��,2.2,��
2024/01/25,21:50,0.506,0.764,0.479,0.959,0.677,0.311,0.554,0.520,�k�k��,3.3,��
2024/01/25,22:00,0.506,0.762,0.478,0.959,0.675,0.311,0.554,0.521,�k��,4.7,��
2024/01/25,22:10,0.506,0.763,0.480,0.960,0.674,0.312,0.555,0.521,�k��,4.8,��
2024/01/25,22:20,0.505,0.763,0.479,0.962,0.677,0.311,0.554,0.521,�k�k��,6.0,��
2024/01/25,22:30,0.506,0.763,0.480,0.958,0.676,0.311,0.553,0.520,�k�k��,6.7,��
2024/01/25,22:40,0.504,0.763,0.479,0.958,0.676,0.311,0.554,0.521,�k�k��,4.8,��
2024/01/25,22:50,0.506,0.762,0.479,0.961,0.676,0.311,0.555,0.521,�k�k��,4.2,��
2024/01/25,23:00,0.505,0.763,0.480,0.960,0.675,0.311,0.554,0.521,�k,3.8,��
2024/01/25,23:10,0.505,0.763,0.479,0.961,0.676,0.311,0.555,0.520,�k�k��,5.3,��
2024/01/25,23:20,0.505,0.764,0.479,0.962,0.674,0.311,0.553,0.520,�k�k��,5.9,��
2024/01/25,23:30,0.504,0.761,0.480,0.960,0.674,0.310,0.554,0.521,�k�k��,5.1,��
2024/01/25,23:40,0.505,0.762,0.479,0.959,0.675,0.310,0.554,0.520,�k,4.5,��
2024/01/25,23:50,0.505,0.760,0.480,0.960,0.676,0.311,0.553,0.519,�k,4.0,��
